Location: Eastchurch
(51.4000°N, 0.8667°E)
Time: 00:16:03
(UTC+00:00)

Cosmos 2218 Rocket - Pass Details

Date: 19 January 2026
Orbit: 955 x 1005 km, 82.9° (Epoch: 17 February)

Event Time Altitude Azimuth Distance (km) Brightness Sun altitude
Rises 17:18:47 0° 349° (N) 3,747 6.9 -8.5°
Reaches altitude 10° 17:21:20 10° 349° (NNW) 2,793 6.3 -8.8°
Maximum altitude 17:27:46 82° 263° (W) 1,020 4.2 -9.8°
Drops below altitude 10° 17:34:07 10° 177° (S) 2,759 6.6 -10.7°
Sets 17:36:37 0° 176° (S) 3,698 7.2 -11.1°
